Location: Unspecified
(43.4354°N, 0.0000°E)
Time: 10:01:15
(UTC+00:00)

Transit 2A - Pass Details

Date: 16 June 2019
Orbit: 600 x 959 km, 66.7° (Epoch: 16 October)

Event Time Altitude Azimuth Distance (km) Brightness Sun altitude
Rises 02:04:16 0° 217° (SW) 3,592 - -17.4°
Reaches altitude 10° 02:06:48 10° 220° (SW) 2,670 - -17.2°
Exits shadow 02:09:18 25° 225° (SW) 1,808 7.3 -17.0°
Maximum altitude 02:13:06 70° 303° (WNW) 1,018 6.6 -16.6°
Drops below altitude 10° 02:19:22 10° 28° (NNE) 2,658 10.1 -16.0°
Sets 02:21:54 0° 30° (NNE) 3,575 11.3 -15.8°
